Location: Unspecified
(0.0000°N, 0.0000°E)
Time: 19:31:39
(UTC+00:00)

KKS-1 - Visible Passes

Search period start: 18 June 2018 00:00
Search period end: 28 June 2018 00:00
Orbit: 638 x 649 km, 98.4° (Epoch: 18 June)

Date Brightness Start Highest point End Pass type
(mag) Time Alt. Az. Time Alt. Az. Time Alt. Az.
18 Jun ? 04:40:50 10° ESE 04:43:23 15° ENE 04:45:55 10° NE visible
18 Jun ? 18:29:12 10° NW 18:31:55 16° WNW 18:34:40 10° WSW visible
19 Jun ? 05:04:01 10° SE 05:07:59 32° ENE 05:11:55 10° NNE visible
20 Jun ? 05:28:09 10° SSE 05:32:34 74° E 05:37:00 10° N visible
22 Jun ? 04:42:49 10° ESE 04:45:30 16° ENE 04:48:10 10° NE visible
22 Jun ? 18:31:27 10° NW 18:34:03 15° WNW 18:36:38 10° WSW visible
23 Jun ? 05:06:05 10° SE 05:10:06 34° ENE 05:14:06 10° NNE visible
24 Jun ? 05:30:15 10° SSE 05:34:41 77° ENE 05:39:07 10° N visible
26 Jun ? 04:44:48 10° ESE 04:47:37 17° ENE 04:50:24 10° NE visible
26 Jun ? 18:33:42 10° NW 18:36:09 15° WNW 18:38:37 10° WSW visible
27 Jun ? 05:08:08 10° SE 05:12:12 35° ENE 05:16:15 10° NNE visible
